Regional Weather Roundup
Issued by NWS Sioux Falls, SD

Home | Current Version | Previous Version | Graphics & Text | Print | Product List | Glossary On
Versions: 1 2 3 4 5 6 7 8 9 10 11 12 13 14 15 16 17 18 19 20 21 22 23 24 25 26 27 28 29 30 31 32 33 34 35 36 37 38 39 40 41 42 43 44 45 46 47 48 49 50
000
ASUS43 KFSD 270110
RWRFSD

WEATHER ROUNDUP FOR SE SOUTH DAKOTA/SW MINNESOTA/NW IOWA
NATIONAL WEATHER SERVICE SIOUX FALLS SD
800 PM CDT WED JUL 26 2017

NOTE: "FAIR" INDICATES FEW OR NO CLOUDS BELOW 12,000 FEET WITH NO
SIGNIFICANT WEATHER AND OR OBSTRUCTIONS TO VISIBILITY.


SDZ038>040-050-052>070-270200-
SOUTHEAST SOUTH DAKOTA

CITY           SKY/WX    TMP DP  RH WIND       PRES   REMARKS
BROOKINGS      PTCLDY    76  62  62 NE7       30.07S
CHAMBERLAIN    SUNNY     83  59  43 E5        30.08S
HURON          CLEAR     80  61  52 NE7       30.06S
MADISON        FAIR      75  64  69 NE5       30.08S
MITCHELL       CLEAR     80  63  55 NE6       30.06S
SIOUX FALLS    PTCLDY    78  63  59 NE9       30.05S
WINNER         FAIR      85  53  33 E13       30.09S
YANKTON        CLEAR     80  65  59 N12       30.04R
$$

MNZ071-072-080-081-089-090-097-098-270200-
SOUTHWEST MINNESOTA

CITY           SKY/WX    TMP DP  RH WIND       PRES   REMARKS
FAIRMONT       CLEAR     76  66  71 N7        30.02R
JACKSON        CLEAR     73  63  68 CALM      30.04S
LUVERNE        CLEAR     75  57  53 N7        30.05S
MARSHALL       CLEAR     76  64  66 N7        30.05S
MONTEVIDEO     CLEAR     79  63  57 N8        30.04S
PIPESTONE      CLEAR     77  63  61 NE5       30.07S
REDWOOD FALLS  CLEAR     78  61  55 NW6       30.02S
TRACY          CLEAR     76  66  71 N6        30.05S
WINDOM         CLEAR     73  63  68 N7        30.04S
WORTHINGTON    CLEAR     75  62  64 N6        30.06R
$$

IAZ001>003-012>014-020>022-031-032-NEZ013-014-SDZ071-270200-
NORTHWEST IOWA

CITY           SKY/WX    TMP DP  RH WIND       PRES   REMARKS
CHEROKEE       PTCLDY    78  73  85 N3        30.01R
DENISON        CLOUDY    79  72  78 NE5       30.01S
ESTHERVILLE    MOCLDY    76  66  71 N13       30.01R
ORANGE CITY    CLEAR     81  68  65 NE9       30.03R
SHELDON        CLEAR     77  64  65 N9        30.02R
SIOUX CITY     PTCLDY    82  72  71 NE7       29.99S
SPENCER        MOCLDY    80  66  62 N13       30.02R
STORM LAKE     CLEAR     77  72  83 CALM      30.02R
$$

ABBREVIATIONS USED IN REMARKS
   TC - TEMPERATURE IN CELSIUS
  WCI - WIND CHILL INDEX
   HX - HEAT INDEX
  VSB - VISIBILITY




USA.gov is the U.S. government's official web portal to all federal, state and local government web resources and services.